Chambery, France

1:09 PM CEST on June 27, 2017 (GMT +0200)
Aix-les-Bains

Weather History for LFLB - June, 2013

Change the Weather History Date:

Friday, June 28, 2013

  Actual Average Record
Temperature  
Mean Temperature 56 °F -  
Max Temperature 68 °F 78 °F 91 °F (2005)
Min Temperature 44 °F 57 °F 44 °F (2013)
Degree Days  
Heating Degree Days 9    
Growing Degree Days 6 (Base 50)    
Moisture  
Dew Point 47 °F    
Average Humidity 71    
Maximum Humidity 100    
Minimum Humidity 46    
Precipitation  
Precipitation 0.00 in - - ()
Sea Level Pressure  
Sea Level Pressure 30.19 in    
Wind  
Wind Speed 3 mph ()    
Max Wind Speed 12 mph    
Max Gust Speed -    
Visibility 6.1 miles    
Events      
Averages and records for this station are not official NWS values.
T = Trace of Precipitation, MM = Missing Value Source: Averaged Metar Reports

Daily Weather History Graph

Daily Weather History Graph

Search for Another Location

Airport or City:

Trip Planner

Search our weather history database for the weather conditions in past years. The results will help you decide how hot, cold, wet, or windy it might be!

Date:

Astronomy

Jun. 28, 2013 Rise Set
Actual Time 5:49 AM CEST 9:29 PM CEST
Civil Twilight 5:11 AM CEST 10:07 PM CEST
Nautical Twilight 4:20 AM CEST 10:58 PM CEST
Astronomical Twilight 3:11 AM CEST 12:07 AM CEST
Moon 12:01 AM CEST (6/28) 11:58 AM CEST (6/28)
Length of Visible Light 16h 56m
Length of Day
15h 40m
Waning Gibbous, 69% of the Moon is Illuminated
Jun 28
Waning Gibbous
Jun 30
Last Quarter
Jul 8
New
Jul 16
First Quarter
Jul 22
Full

Hourly Weather History & Observations

Time (CEST) Temp. Windchill Dew Point Humidity Pressure Visibility Wind Dir Wind Speed Gust Speed Precip Events Conditions
12:00 AM 57.2 °F - 44.6 °F 63% 30.21 in 6.2 mi Variable 2.3 mph - N/A   Unknown
12:30 AM 53.6 °F - 46.4 °F 77% 30.21 in 6.2 mi North 3.5 mph - N/A   Unknown
1:00 AM 51.8 °F - 46.4 °F 82% 30.21 in 6.2 mi Variable 2.3 mph - N/A   Unknown
1:30 AM 51.8 °F - 46.4 °F 82% 30.21 in 6.2 mi Calm Calm - N/A   Unknown
2:00 AM 50.0 °F - 44.6 °F 82% 30.21 in 6.2 mi Calm Calm - N/A   Unknown
2:30 AM 50.0 °F - 46.4 °F 87% 30.21 in 6.2 mi Calm Calm - N/A   Unknown
3:00 AM 48.2 °F - 44.6 °F 87% 30.21 in 6.2 mi Variable 1.2 mph - N/A   Unknown
3:30 AM 48.2 °F - 44.6 °F 87% 30.21 in 6.2 mi Variable 2.3 mph - N/A   Unknown
4:00 AM 48.2 °F - 44.6 °F 87% 30.21 in 6.2 mi Variable 2.3 mph - N/A   Unknown
4:30 AM 46.4 °F - 44.6 °F 93% 30.21 in 6.2 mi Calm Calm - N/A   Unknown
5:00 AM 46.4 °F - 44.6 °F 93% 30.18 in 6.2 mi Variable 1.2 mph - N/A   Unknown
5:30 AM 44.6 °F 43.1 °F 44.6 °F 100% 30.21 in 6.2 mi SSE 3.5 mph - N/A   Unknown
6:00 AM 46.4 °F - 44.6 °F 93% 30.21 in - Calm Calm - N/A   Clear
6:30 AM 46.4 °F - 44.6 °F 93% 30.21 in - Variable 1.2 mph - N/A   Clear
7:00 AM 46.4 °F - 44.6 °F 93% 30.21 in - SSE 2.3 mph - N/A   Clear
7:30 AM 50.0 °F - 46.4 °F 87% 30.21 in 6.2 mi Variable 1.2 mph - N/A   Mostly Cloudy
8:00 AM 53.6 °F - 48.2 °F 82% 30.21 in 6.2 mi Variable 1.2 mph - N/A   Mostly Cloudy
8:30 AM 53.6 °F - 48.2 °F 82% 30.21 in 6.2 mi Calm Calm - N/A   Mostly Cloudy
9:00 AM 55.4 °F - 48.2 °F 77% 30.21 in - Variable 2.3 mph - N/A   Clear
9:30 AM 55.4 °F - 48.2 °F 77% 30.21 in 6.2 mi Variable 2.3 mph - N/A   Overcast
10:00 AM 57.2 °F - 48.2 °F 72% 30.21 in 6.2 mi North 4.6 mph - N/A   Overcast
10:30 AM 57.2 °F - 48.2 °F 72% 30.18 in 6.2 mi Variable 3.5 mph - N/A   Overcast
11:00 AM 59.0 °F - 46.4 °F 63% 30.18 in 6.2 mi Variable 3.5 mph - N/A   Mostly Cloudy
11:30 AM 59.0 °F - 48.2 °F 67% 30.18 in 6.2 mi NNW 4.6 mph - N/A   Mostly Cloudy
12:00 PM 60.8 °F - 50.0 °F 68% 30.18 in 6.2 mi North 5.8 mph - N/A   Mostly Cloudy
12:30 PM 60.8 °F - 50.0 °F 68% 30.18 in 6.2 mi North 11.5 mph - N/A   Mostly Cloudy
1:00 PM 64.4 °F - 51.8 °F 64% 30.18 in 6.2 mi North 11.5 mph - N/A   Mostly Cloudy
1:30 PM 64.4 °F - 51.8 °F 64% 30.18 in 6.2 mi North 10.4 mph - N/A   Mostly Cloudy
2:00 PM 66.2 °F - 46.4 °F 49% 30.18 in 6.2 mi North 9.2 mph - N/A   Mostly Cloudy
2:30 PM 66.2 °F - 46.4 °F 49% 30.18 in 6.2 mi North 9.2 mph - N/A   Mostly Cloudy
3:00 PM 68.0 °F - 50.0 °F 52% 30.15 in 6.2 mi North 10.4 mph - N/A   Mostly Cloudy
3:30 PM 66.2 °F - 48.2 °F 52% 30.15 in 6.2 mi North 11.5 mph - N/A   Mostly Cloudy
4:00 PM 68.0 °F - 48.2 °F 49% 30.15 in 6.2 mi North 6.9 mph - N/A   Mostly Cloudy
4:30 PM 68.0 °F - 46.4 °F 46% 30.15 in 6.2 mi North 5.8 mph - N/A   Mostly Cloudy
5:00 PM 66.2 °F - 46.4 °F 49% 30.15 in 6.2 mi North 6.9 mph - N/A   Mostly Cloudy
5:30 PM 66.2 °F - 44.6 °F 46% 30.18 in 6.2 mi North 6.9 mph - N/A   Mostly Cloudy
6:00 PM 66.2 °F - 48.2 °F 52% 30.18 in 6.2 mi North 6.9 mph - N/A   Mostly Cloudy
6:30 PM 64.4 °F - 46.4 °F 52% 30.18 in 6.2 mi NNE 6.9 mph - N/A   Overcast
7:00 PM 64.4 °F - 48.2 °F 56% 30.18 in 6.2 mi NNE 8.1 mph - N/A   Overcast
7:30 PM 62.6 °F - 48.2 °F 59% 30.18 in 6.2 mi North 6.9 mph - N/A   Overcast
8:00 PM 64.4 °F - 48.2 °F 56% 30.18 in 6.2 mi NNE 6.9 mph - N/A   Overcast
8:30 PM 62.6 °F - 48.2 °F 59% 30.18 in 6.2 mi NNE 8.1 mph - N/A   Overcast
9:00 PM 62.6 °F - 50.0 °F 63% 30.18 in 6.2 mi NNE 4.6 mph - N/A   Overcast
9:30 PM 60.8 °F - 50.0 °F 68% 30.18 in 6.2 mi Variable 1.2 mph - N/A   Overcast
10:00 PM 59.0 °F - 50.0 °F 72% 30.21 in 2.8 mi SSE 4.6 mph - N/A   Overcast
10:30 PM 59.0 °F - 50.0 °F 72% 30.21 in 6.2 mi South 4.6 mph - N/A   Overcast
11:00 PM 57.2 °F - 50.0 °F 77% 30.21 in 6.2 mi South 5.8 mph - N/A   Mostly Cloudy
11:30 PM 57.2 °F - 50.0 °F 77% 30.24 in 6.2 mi South 3.5 mph - N/A   Unknown